Location: Unspecified
(49.2170°N, 0.0000°E)
Time: 08:37:08
(UTC+00:00)

Vanguard 3 - Pass Details

Date: 04 July 2019
Orbit: 508 x 3263 km, 33.3° (Epoch: 16 August)

Event Time Altitude Azimuth Distance (km) Brightness Sun altitude
Rises 10:15:08 0° 256° (WSW) 7,202 11.8 56.0°
Reaches altitude 10° 10:20:35 10° 250° (WSW) 6,047 11.5 56.7°
Maximum altitude 10:36:38 41° 190° (S) 3,223 11.2 58.5°
Drops below altitude 10° 10:47:15 10° 125° (SE) 4,061 11.4 59.6°
Sets 10:50:08 0° 118° (ESE) 4,719 11.5 59.9°
